Regional Weather Roundup
Issued by NWS

Home | Current Version | Previous Version | Text Only | Print | Product List | Glossary Off
Versions: 1 2 3 4 5 6 7 8 9 10 11 12 13 14 15 16 17 18 19 20 21 22 23 24 25 26 27 28 29 30 31 32 33 34 35 36 37 38 39 40 41 42 43 44 45 46 47 48 49 50

000
ASUS43 KIND 200959
RWRIN

WEATHER ROUNDUP FOR INDIANA
NATIONAL WEATHER SERVICE INDIANAPOLIS IN
600 AM EDT FRI APR 20 2018

NOTE: "FAIR" INDICATES FEW OR NO CLOUDS BELOW 12,000 FEET WITH NO
SIGNIFICANT WEATHER AND/OR OBSTRUCTIONS TO VISIBILITY.

* - STATION DOES NOT REPORT WEATHER SUCH AS PRECIPITATION OR FOG.

+ - STATION NOT QUALITY CONTROLLED BY THE NATIONAL WEATHER SERVICE.
    USE DATA WITH CAUTION...ESPECIALLY DEWPOINT AND RELATIVE
    HUMIDITY OBSERVATIONS.

INZ001>003-010>013-019-020-201100-
NORTHWEST INDIANA

CITY           SKY/WX    TMP DP  RH WIND       PRES   REMARKS
GARY /AIRPORT/ CLEAR     30  30 100 CALM      30.48R
KNOX *+        FAIR      27  23  86 CALM      30.46S
MONTICELLO +   FAIR      27  21  80 W3        30.46R

$$

LMZ046-743>745-201100-
SOUTHERN LAKE MICHIGAN

STATION/POSITION TIME  TEMP    WIND        PRES    WAVE
                       AIR SEA DIR/SP/G            HT
                 (UTC) (F)     (DEG/KT/KT) (MB)    (FT)
BURNS HARBOR     0940   40      30/  2/  3 1032.2R
MICHIGAN CITY    0930   37     210/  2/  2   N/A

$$

INZ004-005-014>016-021>024-201100-
NORTH CENTRAL INDIANA

CITY           SKY/WX    TMP DP  RH WIND       PRES   REMARKS
GOSHEN         FAIR      29  23  78 VRB5      30.44R WCI  24
PERU/GRISSOM   FAIR      29  24  83 CALM      30.44R
ROCHESTER +    FAIR      32  27  80 CALM      30.46R
SOUTH BEND     FAIR      26  23  88 NW3       30.46R
WARSAW +       FAIR      28  25  86 CALM      30.45R

$$

INZ006>009-017-018-025>027-201100-
NORTHEAST INDIANA

CITY           SKY/WX    TMP DP  RH WIND       PRES   REMARKS
ANGOLA *+      FAIR      30  21  69 N5        30.43R WCI  25
FORT WAYNE     FAIR      31  22  69 NW5       30.44R WCI  26
KENDALLVILLE + FAIR      31  15  51 N3        30.44R

$$

INZ028-029-035-036-043>045-051>053-201100-
WEST CENTRAL INDIANA

CITY           SKY/WX    TMP DP  RH WIND       PRES   REMARKS
GREENCASTLE +  FAIR      32  21  64 N6        30.45S WCI  26
LAFAYETTE      FAIR      27  23  85 CALM      30.46S
TERRE HAUTE    FAIR      30  21  69 NE3       30.46R

$$

INZ030>032-037>040-046>048-054>057-064-065-201100-
CENTRAL INDIANA

CITY           SKY/WX    TMP DP  RH WIND       PRES   REMARKS
INDIANAPOLIS   FAIR      32  20  61 NW6       30.44R WCI  26
-EAGLE CREEK   FAIR      34  20  56 N7        30.44R WCI  28
KOKOMO +       FAIR      28  23  81 NW3       30.46R
MT COMFORT *+  FAIR      28  25  86 N3        30.44R
SHELBYVILLE    FAIR      31  22  69 N5        30.43R WCI  26
ZIONSVILLE +   FAIR      30  22  73 N5        30.45R WCI  25

$$

INZ033-034-041-042-049-050-058-059-201100-
EAST CENTRAL INDIANA

CITY           SKY/WX    TMP DP  RH WIND       PRES   REMARKS
MUNCIE         FAIR      32  21  64 CALM      30.43R
RICHMOND +     FAIR      32  27  80 N5        30.41S WCI  27

$$

INZ060-061-067>069-081>083-085>088-201100-
SOUTHWEST INDIANA

CITY           SKY/WX    TMP DP  RH WIND       PRES   REMARKS
EVANSVILLE     FAIR      38  21  50 N12       30.42S WCI  30
HUNTINGBURG +  FAIR      35  19  52 N7        30.42S WCI  29

$$

INZ062-063-066-070>080-084-089>092-201100-
SOUTH CENTRAL AND SOUTHEAST INDIANA

CITY           SKY/WX    TMP DP  RH WIND       PRES   REMARKS
BLOOMINGTON    FAIR      33  18  53 N7        30.43R WCI  27
SEYMOUR +      FAIR      36  21  55 N6        30.43R WCI  31

$$





USA.gov is the U.S. government's official web portal to all federal, state and local government web resources and services.